Charles City
Sunday 2:35 PM
Temperature73° (73°/48°)
Dew Point45°
Relative Humidity36
%
Visibility10
mi
Pressure1024.4
mb
Wind DirectionS
190°
Wind Speed9
mph
Precipitation Today0.00"

Last 30 Observations

Time PresWx Temp DP Feels RH% Vsby Pressure Ceiling Direction Speed 1h Precip
2:35 PM 10
mi
0.00"
2:15 PM 73° 46° 38
%
10
mi
1024.4
mb
S
170°
9
mph
0.00"
1:55 PM 73° 45° 36
%
10
mi
1024.7
mb
SSW
210°
6
mph
0.00"
1:35 PM 73° 45° 36
%
10
mi
1025.4
mb
S
190°
10
mph
0.00"
1:15 PM 72° 46° 41
%
10
mi
1025.4
mb
Variable 7
mph
0.00"
12:55 PM 72° 45° 38
%
10
mi
1025.7
mb
Variable 6
mph
(G13)
0.00"
12:35 PM 72° 45° 38
%
10
mi
1025.7
mb
SSW
200°
7
mph
(G14)
0.00"
12:15 PM 70° 45° 40
%
10
mi
1026.1
mb
Variable 7
mph
0.00"
11:55 AM 70° 45° 40
%
10
mi
1026.4
mb
SSW
200°
6
mph
(G13)
0.00"
11:35 AM 70° 43° 38
%
10
mi
1026.4
mb
S
180°
7
mph
0.00"
11:15 AM 68° 43° 40
%
10
mi
1026.4
mb
S
190°
9
mph
0.00"
10:55 AM 66° 43° 43
%
10
mi
1026.8
mb
S
170°
8
mph
(G16)
0.00"
10:35 AM 66° 43° 43
%
10
mi
1026.8
mb
S
170°
11
mph
0.00"
10:15 AM 64° 43° 45
%
10
mi
1027.1
mb
SSE
150°
8
mph
0.00"
9:55 AM 64° 43° 45
%
10
mi
1027.1
mb
S
170°
8
mph
0.00"
9:35 AM 63° 43° 48
%
10
mi
1027.1
mb
SSE
150°
11
mph
0.00"
9:15 AM 63° 43° 48
%
10
mi
1027.1
mb
SSE
150°
7
mph
0.00"
8:55 AM 61° 45° 55
%
10
mi
1027.1
mb
SE
140°
9
mph
0.00"
8:35 AM 59° 43° 55
%
10
mi
1027.1
mb
SE
140°
7
mph
0.00"
8:15 AM 57° 45° 63
%
1027.1
mb
SE
130°
9
mph
0.00"
7:55 AM 57° 45° 63
%
10
mi
1027.1
mb
ESE
110°
8
mph
0.00"
7:35 AM 55° 43° 62
%
10
mi
1026.8
mb
ESE
110°
7
mph
0.00"
7:15 AM 54° 43° 67
%
10
mi
1026.8
mb
ESE
110°
6
mph
0.00"
6:55 AM 52° 45° 76
%
10
mi
1026.4
mb
E
100°
6
mph
0.00"
6:35 AM 50° 43° 76
%
10
mi
1026.4
mb
E
90°
6
mph
0.00"
6:15 AM 48° 43° 46°81
%
10
mi
1026.1
mb
E
80°
6
mph
0.00"
5:55 AM 48° 43° 46°81
%
10
mi
1025.7
mb
ENE
70°
6
mph
0.00"
5:35 AM 48° 43° 46°81
%
10
mi
1026.1
mb
ENE
70°
5
mph
0.00"
5:15 AM 48° 43° 46°81
%
10
mi
1025.7
mb
E
80°
5
mph
0.00"
4:55 AM 50° 41° 71
%
10
mi
1025.7
mb
Calm 0.00"